FW4701 Weather Reports


Display with metric or nautical units.
time (UTC)temp
F
wind
direction
speed
MPH
gust
MPH
rain 1hr
in
rain 24hr
in
rain mn
in
humidity
%
barometer
mb
20260904005004 86 161 0.0 2.0 0.00 0.00 0.00 63 1013.9
20260904004525 86 110 12.0 18.0 0.00 0.00 0.00 51 1010.5
20260904004512 86 161 0.0 2.0 0.00 0.00 0.00 63 1013.9
20260904004008 87 126 0.0 2.0 0.00 0.00 0.00 63 1013.9
20260904003506 87 173 0.0 4.0 0.00 0.00 0.00 63 1013.7
20260904003024 87 169 1.0 4.0 0.00 0.00 0.00 63 1013.6
20260904003022 87 160 9.0 22.0 0.00 0.00 0.00 48 1010.5
20260904002508 88 188 0.0 2.0 0.00 0.00 0.00 65 1013.7
20260904002010 88 188 0.0 2.0 0.00 0.00 0.00 65 1013.6
20260904001524 88 200 0.0 2.0 0.00 0.00 0.00 65 1013.6
20260904001520 88 96 14.0 19.0 0.00 0.00 0.00 48 1010.5
20260904001013 88 185 0.0 3.0 0.00 0.00 0.00 65 1013.5
20260904000515 89 172 0.0 3.0 0.00 0.00 0.00 65 1013.6
20260904000030 89 189 1.0 4.0 0.00 0.00 0.00 64 1013.6
20260904000019 89 117 13.0 19.0 0.00 0.00 0.00 47 1010.1
20260903235504 89 176 1.0 6.0 0.00 0.00 0.00 64 1013.7
20260903235004 90 172 2.0 6.0 0.00 0.00 0.00 64 1014.0
20260903234517 89 98 12.0 21.0 0.00 0.00 0.00 47 1010.3
20260903234510 90 205 3.0 9.0 0.00 0.00 0.00 63 1014.0
20260903234007 90 165 2.0 9.0 0.00 0.00 0.00 63 1014.0
20260903233507 91 154 3.0 9.0 0.00 0.00 0.00 63 1013.9
20260903233118 90 116 13.0 22.0 0.00 0.00 0.00 46 1010.1
20260903233013 91 214 3.0 8.0 0.00 0.00 0.00 62 1013.9
20260903232511 92 207 1.0 5.0 0.00 0.00 0.00 63 1013.9
20260903232009 92 166 2.0 5.0 0.00 0.00 0.00 62 1013.9
20260903231521 92 281 0.0 2.0 0.00 0.00 0.00 61 1013.9
20260903231515 92 121 11.0 22.0 0.00 0.00 0.00 43 1009.8
20260903231013 92 281 0.0 3.0 0.00 0.00 0.00 63 1013.9
20260903230513 92 286 1.0 3.0 0.00 0.00 0.00 61 1013.9
20260903230045 93 260 0.0 4.0 0.00 0.00 0.00 61 1014.0
20260903230015 93 136 13.0 21.0 0.00 0.00 0.00 42 1009.8
20260903225515 93 281 0.0 5.0 0.00 0.00 0.00 60 1014.0
20260903225015 93 299 1.0 5.0 0.00 0.00 0.00 59 1014.1
20260903224524 94 120 13.0 19.0 0.00 0.00 0.00 41 1009.6
20260903224507 94 250 1.0 3.0 0.00 0.00 0.00 58 1014.2
20260903224005 94 217 0.0 2.0 0.00 0.00 0.00 62 1014.1
20260903223505 95 235 0.0 5.0 0.00 0.00 0.00 61 1014.1
20260903223013 95 204 1.0 5.0 0.00 0.00 0.00 58 1014.1
20260903223006 95 115 9.0 18.0 0.00 0.00 0.00 41 1009.6
20260903222509 95 161 0.0 2.0 0.00 0.00 0.00 57 1014.1
20260903222008 95 150 0.0 5.0 0.00 0.00 0.00 59 1014.1
20260903221519 95 241 1.0 5.0 0.00 0.00 0.00 58 1014.1
20260903221502 94 122 14.0 21.0 0.00 0.00 0.00 42 1009.6
20260903221012 94 196 2.0 4.0 0.00 0.00 0.00 58 1014.0
20260903220519 94 192 1.0 3.0 0.00 0.00 0.00 57 1013.9
20260903220108 94 133 6.0 21.0 0.00 0.00 0.00 42 1009.7
20260903220026 95 268 1.0 4.0 0.00 0.00 0.00 58 1013.9
20260903215514 95 231 1.0 4.0 0.00 0.00 0.00 58 1013.9
20260903215013 95 281 1.0 7.0 0.00 0.00 0.00 56 1014.0
20260903214555 94 108 9.0 20.0 0.00 0.00 0.00 43 1009.6
20260903214537 95 180 3.0 7.0 0.00 0.00 0.00 58 1014.0
20260903214015 95 193 0.0 4.0 0.00 0.00 0.00 59 1014.0
20260903213505 95 274 1.0 6.0 0.00 0.00 0.00 57 1013.9
20260903213052 93 103 13.0 18.0 0.00 0.00 0.00 43 1009.7
20260903213018 96 190 1.0 6.0 0.00 0.00 0.00 57 1014.0
20260903212507 95 184 3.0 7.0 0.00 0.00 0.00 57 1014.0
20260903212008 95 188 3.0 7.0 0.00 0.00 0.00 57 1014.0
20260903211547 93 213 7.0 20.0 0.00 0.00 0.00 44 1009.8
20260903211516 95 169 2.0 7.0 0.00 0.00 0.00 57 1014.1
20260903211008 95 176 2.0 12.0 0.00 0.00 0.00 58 1014.1
20260903210511 95 172 5.0 12.0 0.00 0.00 0.00 57 1014.1
20260903210053 92 136 11.0 21.0 0.00 0.00 0.00 46 1010.1
20260903210024 95 173 0.0 5.0 0.00 0.00 0.00 57 1014.2
20260903205511 95 209 2.0 6.0 0.00 0.00 0.00 58 1014.2
20260903205011 95 184 1.0 6.0 0.00 0.00 0.00 57 1014.3
20260903204540 91 123 12.0 20.0 0.00 0.00 0.00 48 1010.2
20260903204528 95 200 2.0 7.0 0.00 0.00 0.00 56 1014.4
20260903204015 96 127 1.0 7.0 0.00 0.00 0.00 55 1014.3
20260903203516 96 224 2.0 6.0 0.00 0.00 0.00 58 1014.4
20260903203037 90 141 13.0 18.0 0.00 0.00 0.00 49 1010.4
20260903203030 95 181 3.0 6.0 0.00 0.00 0.00 56 1014.5
20260903202514 95 240 2.0 6.0 0.00 0.00 0.00 58 1014.5
20260903202004 95 84 2.0 11.0 0.00 0.00 0.00 56 1014.4
20260903201534 90 113 12.0 20.0 0.00 0.00 0.00 48 1010.5
20260903201517 95 180 3.0 11.0 0.00 0.00 0.00 57 1014.5
20260903201007 95 238 1.0 4.0 0.00 0.00 0.00 57 1014.5
20260903200507 95 162 1.0 4.0 0.00 0.00 0.00 56 1014.5
20260903200030 90 103 9.0 18.0 0.00 0.00 0.00 49 1010.6
20260903200019 95 252 1.0 3.0 0.00 0.00 0.00 59 1014.5
20260903195511 95 64 1.0 4.0 0.00 0.00 0.00 58 1014.5
20260903195011 95 93 1.0 4.0 0.00 0.00 0.00 57 1014.6
20260903194542 91 97 13.0 21.0 0.00 0.00 0.00 49 1010.8
20260903194523 95 111 2.0 4.0 0.00 0.00 0.00 56 1014.7
20260903194014 95 223 0.0 6.0 0.00 0.00 0.00 57 1014.7
20260903193521 95 17 0.0 6.0 0.00 0.00 0.00 56 1014.8
20260903193034 95 190 1.0 6.0 0.00 0.00 0.00 57 1014.9
20260903193023 90 129 12.0 19.0 0.00 0.00 0.00 49 1011.0
20260903192516 95 271 1.0 6.0 0.00 0.00 0.00 57 1014.9
20260903192003 94 117 2.0 5.0 0.00 0.00 0.00 58 1014.9
20260903191520 91 127 8.0 18.0 0.00 0.00 0.00 49 1011.4
20260903191509 94 178 1.0 5.0 0.00 0.00 0.00 60 1014.9
20260903191005 94 265 1.0 5.0 0.00 0.00 0.00 58 1015.0
20260903190507 94 22 1.0 4.0 0.00 0.00 0.00 59 1015.0
20260903190018 90 112 13.0 21.0 0.00 0.00 0.00 49 1011.8
20260903185509 94 265 1.0 5.0 0.00 0.00 0.00 60 1015.2
20260903185009 94 5 1.0 4.0 0.00 0.00 0.00 61 1015.2
20260903184519 94 270 1.0 5.0 0.00 0.00 0.00 61 1015.2
20260903184517 89 107 11.0 19.0 0.00 0.00 0.00 50 1012.0
20260903184010 93 253 2.0 6.0 0.00 0.00 0.00 60 1015.3
20260903183511 93 47 2.0 6.0 0.00 0.00 0.00 60 1015.3
20260903183024 93 306 1.0 6.0 0.00 0.00 0.00 62 1015.4
20260903183017 90 122 11.0 22.0 0.00 0.00 0.00 50 1012.2
20260903182503 93 321 2.0 6.0 0.00 0.00 0.00 62 1015.4
20260903182003 93 316 2.0 6.0 0.00 0.00 0.00 62 1015.4
20260903181516 91 116 10.0 17.0 0.00 0.00 0.00 50 1012.3
20260903181508 93 238 1.0 6.0 0.00 0.00 0.00 62 1015.4
20260903181004 93 192 1.0 6.0 0.00 0.00 0.00 62 1015.5
20260903180504 92 192 2.0 5.0 0.00 0.00 0.00 64 1015.7
20260903180035 92 36 2.0 6.0 0.00 0.00 0.00 63 1015.7
20260903180018 90 88 7.0 19.0 0.00 0.00 0.00 50 1012.6
20260903175505 92 271 1.0 6.0 0.00 0.00 0.00 61 1015.7
20260903175009 93 245 2.0 3.0 0.00 0.00 0.00 61 1015.8
20260903174519 93 238 1.0 6.0 0.00 0.00 0.00 60 1015.7
20260903174511 90 124 11.0 16.0 0.00 0.00 0.00 48 1012.8
20260903174010 94 149 2.0 6.0 0.00 0.00 0.00 57 1015.4
20260903173511 94 344 1.0 5.0 0.00 0.00 0.00 59 1015.4
20260903173031 94 198 3.0 8.0 0.00 0.00 0.00 59 1015.4
20260903173022 91 115 11.0 18.0 0.00 0.00 0.00 46 1012.8
20260903172514 94 21 2.0 8.0 0.00 0.00 0.00 60 1015.4
20260903172014 94 255 2.0 7.0 0.00 0.00 0.00 59 1015.5
20260903171528 93 289 2.0 7.0 0.00 0.00 0.00 61 1015.5
20260903171507 92 122 8.0 18.0 0.00 0.00 0.00 46 1013.1
20260903171003 93 311 3.0 9.0 0.00 0.00 0.00 59 1015.5
20260903170506 93 265 5.0 9.0 0.00 0.00 0.00 60 1015.5
20260903170008 93 196 3.0 9.0 0.00 0.00 0.00 62 1015.5
20260903170004 91 86 4.0 14.0 0.00 0.00 0.00 47 1012.9
20260903165504 93 262 3.0 8.0 0.00 0.00 0.00 60 1015.4
20260903165007 93 270 3.0 10.0 0.00 0.00 0.00 61 1015.4
20260903164514 93 277 1.0 10.0 0.00 0.00 0.00 61 1015.3
20260903164501 92 175 4.0 15.0 0.00 0.00 0.00 45 1012.9
20260903164008 93 165 2.0 13.0 0.00 0.00 0.00 61 1015.3
20260903163508 92 264 1.0 13.0 0.00 0.00 0.00 63 1015.2
20260903163100 94 134 0.0 7.0 0.00 0.00 0.00 42 1013.0
20260903163023 92 188 2.0 11.0 0.00 0.00 0.00 62 1015.2
20260903162511 92 171 4.0 11.0 0.00 0.00 0.00 62 1015.2
20260903162011 92 221 2.0 10.0 0.00 0.00 0.00 61 1015.3
20260903161552 92 139 4.0 7.0 0.00 0.00 0.00 46 1013.0
20260903161529 92 184 6.0 11.0 0.00 0.00 0.00 62 1015.2
20260903161013 92 286 3.0 11.0 0.00 0.00 0.00 62 1015.3
20260903160520 92 171 5.0 13.0 0.00 0.00 0.00 63 1015.4
20260903160049 89 119 1.0 11.0 0.00 0.00 0.00 49 1013.1
20260903160009 91 211 5.0 13.0 0.00 0.00 0.00 63 1015.3
20260903155504 91 179 3.0 10.0 0.00 0.00 0.00 64 1015.4
20260903155004 91 194 2.0 10.0 0.00 0.00 0.00 62 1015.4
20260903154546 89 116 2.0 11.0 0.00 0.00 0.00 49 1013.0
20260903154513 91 268 2.0 9.0 0.00 0.00 0.00 62 1015.4
20260903154010 91 199 3.0 9.0 0.00 0.00 0.00 63 1015.4
20260903153512 90 229 4.0 9.0 0.00 0.00 0.00 66 1015.5
20260903153043 89 163 1.0 5.0 0.00 0.00 0.00 50 1012.8
20260903153018 90 165 1.0 10.0 0.00 0.00 0.00 65 1015.5
20260903152510 90 196 3.0 10.0 0.00 0.00 0.00 66 1015.6
20260903152012 89 202 2.0 8.0 0.00 0.00 0.00 67 1015.6
20260903151540 89 117 0.0 3.0 0.00 0.00 0.00 50 1012.8
20260903151522 89 290 3.0 9.0 0.00 0.00 0.00 65 1015.6
20260903151013 89 278 2.0 10.0 0.00 0.00 0.00 66 1015.6
20260903150513 89 238 4.0 10.0 0.00 0.00 0.00 66 1015.6
20260903150048 89 153 0.0 1.0 0.00 0.00 0.00 52 1012.8
20260903150034 88 219 3.0 7.0 0.00 0.00 0.00 68 1015.6
20260903145514 88 192 2.0 7.0 0.00 0.00 0.00 68 1015.6
20260903145014 87 186 3.0 9.0 0.00 0.00 0.00 70 1015.7
20260903144539 86 138 0.0 5.0 0.00 0.00 0.00 56 1012.7
20260903144510 87 244 2.0 9.0 0.00 0.00 0.00 70 1015.6
20260903144004 86 266 4.0 9.0 0.00 0.00 0.00 70 1015.6
20260903143507 86 220 2.0 7.0 0.00 0.00 0.00 72 1015.6
20260903143036 82 117 1.0 10.0 0.00 0.00 0.00 57 1012.7
20260903143015 85 177 2.0 7.0 0.00 0.00 0.00 72 1015.5
20260903142508 85 184 1.0 9.0 0.00 0.00 0.00 73 1015.5
20260903142012 85 167 2.0 9.0 0.00 0.00 0.00 74 1015.4
20260903141532 81 155 0.0 8.0 0.00 0.00 0.00 57 1012.7
20260903141524 84 244 1.0 4.0 0.00 0.00 0.00 74 1015.3
20260903141013 84 257 2.0 8.0 0.00 0.00 0.00 73 1015.4
20260903140511 84 334 2.0 8.0 0.00 0.00 0.00 74 1015.4
20260903140038 83 251 2.0 7.0 0.00 0.00 0.00 75 1015.4
20260903140021 80 120 5.0 8.0 0.00 0.00 0.00 58 1012.8
20260903135514 83 162 3.0 7.0 0.00 0.00 0.00 75 1015.3
20260903135012 83 202 2.0 7.0 0.00 0.00 0.00 76 1015.3
20260903134535 79 110 4.0 7.0 0.00 0.00 0.00 57 1012.9
20260903134526 82 213 2.0 9.0 0.00 0.00 0.00 77 1015.3
20260903134015 81 256 3.0 9.0 0.00 0.00 0.00 77 1015.4
20260903133510 81 229 2.0 7.0 0.00 0.00 0.00 78 1015.3
20260903133015 79 120 0.0 6.0 0.00 0.00 0.00 57 1012.8
20260903133012 80 234 3.0 8.0 0.00 0.00 0.00 80 1015.4
20260903132506 79 182 2.0 8.0 0.00 0.00 0.00 81 1015.5
20260903132009 79 196 3.0 8.0 0.00 0.00 0.00 82 1015.5
20260903131518 78 213 3.0 6.0 0.00 0.00 0.00 82 1015.5
20260903131512 79 119 2.0 5.0 0.00 0.00 0.00 57 1012.8
20260903131010 78 237 1.0 7.0 0.00 0.00 0.00 83 1015.5
20260903130510 77 244 3.0 7.0 0.00 0.00 0.00 84 1015.6
20260903130030 77 184 2.0 6.0 0.00 0.00 0.00 84 1015.7
20260903130007 0 0.0 0.0 0.00 0.00 0.00 1012.8
20260903125514 77 197 2.0 6.0 0.00 0.00 0.00 85 1015.7
20260903125013 76 187 1.0 5.0 0.00 0.00 0.00 85 1015.7
20260903124526 76 187 3.0 5.0 0.00 0.00 0.00 86 1015.7
20260903124501 0 0.0 0.0 0.00 0.00 0.00 1012.8
20260903124014 76 247 2.0 5.0 0.00 0.00 0.00 86 1015.7
20260903123516 75 206 2.0 4.0 0.00 0.00 0.00 87 1015.7
20260903123057 0 0.0 0.0 0.00 0.00 0.00 1012.6
20260903123036 75 189 1.0 5.0 0.00 0.00 0.00 87 1015.8
20260903122506 75 147 2.0 5.0 0.00 0.00 0.00 87 1015.7
20260903122011 75 184 1.0 5.0 0.00 0.00 0.00 88 1015.7
20260903121552 0 0.0 0.0 0.00 0.00 0.00 1012.5
20260903121517 75 200 1.0 5.0 0.00 0.00 0.00 88 1015.7
20260903121010 74 173 1.0 4.0 0.00 0.00 0.00 88 1015.8
20260903120509 74 182 2.0 4.0 0.00 0.00 0.00 89 1015.8
20260903120052 0 0.0 0.0 0.00 0.00 0.00 1012.3
20260903120020 74 194 1.0 3.0 0.00 0.00 0.00 88 1015.8
20260903115511 74 167 1.0 3.0 0.00 0.00 0.00 89 1015.9
20260903115012 74 178 1.0 5.0 0.00 0.00 0.00 89 1015.8
20260903114541 0 0.0 0.0 0.00 0.00 0.00 1012.4
20260903114538 74 207 1.0 5.0 0.00 0.00 0.00 89 1015.6
20260903114013 74 183 1.0 5.0 0.00 0.00 0.00 89 1015.7
20260903113514 74 186 1.0 4.0 0.00 0.00 0.00 88 1015.6
20260903113035 0 0.0 0.0 0.00 0.00 0.00 1012.0
20260903113029 74 191 1.0 4.0 0.00 0.00 0.00 88 1015.7
20260903112519 74 204 0.0 4.0 0.00 0.00 0.00 88 1015.5
20260903112018 74 191 1.0 3.0 0.00 0.00 0.00 88 1015.6
20260903111530 0 0.0 0.0 0.00 0.00 0.00 1011.9
20260903111007 74 191 1.0 3.0 0.00 0.00 0.00 88 1015.7
20260903110508 74 194 0.0 2.0 0.00 0.00 0.00 88 1015.6
20260903110025 0 0.0 0.0 0.00 0.00 0.00 1012.0
20260903110018 74 223 0.0 1.0 0.00 0.00 0.00 88 1015.5
20260903105512 74 223 0.0 3.0 0.00 0.00 0.00 88 1015.5
20260903105012 75 223 0.0 3.0 0.00 0.00 0.00 88 1015.5
20260903104524 75 229 0.0 2.0 0.00 0.00 0.00 87 1015.4
20260903104520 0 0.0 0.0 0.00 0.00 0.00 1011.9
20260903104012 75 229 0.0 3.0 0.00 0.00 0.00 87 1015.4
20260903103512 75 241 0.0 3.0 0.00 0.00 0.00 88 1015.5
20260903103116 76 115 3.0 6.0 0.00 0.00 0.00 63 1012.0
20260903103032 75 176 0.0 3.0 0.00 0.00 0.00 87 1015.5
20260903102516 75 202 0.0 3.0 0.00 0.00 0.00 88 1015.5
20260903102006 75 200 0.0 4.0 0.00 0.00 0.00 87 1015.5
20260903101512 77 113 4.0 6.0 0.00 0.00 0.00 62 1011.9
20260903101007 75 180 1.0 4.0 0.00 0.00 0.00 87 1015.5
20260903100507 75 192 1.0 4.0 0.00 0.00 0.00 87 1015.4
20260903100026 75 204 1.0 4.0 0.00 0.00 0.00 87 1015.4
20260903100010 76 118 2.0 3.0 0.00 0.00 0.00 62 1011.7
20260903095510 75 196 1.0 4.0 0.00 0.00 0.00 87 1015.4
20260903095010 75 204 1.0 4.0 0.00 0.00 0.00 87 1015.4
20260903094610 76 118 0.0 0.0 0.00 0.00 0.00 62 1011.7
20260903094504 75 217 1.0 4.0 0.00 0.00 0.00 87 1015.4
20260903094003 75 199 1.0 5.0 0.00 0.00 0.00 86 1015.4
20260903093503 75 201 2.0 5.0 0.00 0.00 0.00 86 1015.4
20260903093015 76 118 2.0 4.0 0.00 0.00 0.00 62 1011.9
20260903093012 75 178 2.0 5.0 0.00 0.00 0.00 86 1015.4
20260903092503 76 194 1.0 4.0 0.00 0.00 0.00 86 1015.3
20260903092004 76 229 2.0 4.0 0.00 0.00 0.00 86 1015.3
20260903091508 76 191 2.0 4.0 0.00 0.00 0.00 86 1015.3
20260903091503 76 110 2.0 3.0 0.00 0.00 0.00 62 1011.8
20260903091004 76 205 1.0 4.0 0.00 0.00 0.00 85 1015.3
20260903090507 76 178 0.0 4.0 0.00 0.00 0.00 86 1015.2
20260903090104 77 110 0.0 2.0 0.00 0.00 0.00 62 1011.8
20260903090012 76 207 0.0 4.0 0.00 0.00 0.00 85 1015.2
20260903085505 76 193 1.0 4.0 0.00 0.00 0.00 85 1015.2
20260903085008 76 195 1.0 3.0 0.00 0.00 0.00 85 1015.2
20260903084600 77 110 0.0 1.0 0.00 0.00 0.00 62 1012.0
20260903084528 76 232 1.0 3.0 0.00 0.00 0.00 85 1015.2
20260903084010 76 201 0.0 4.0 0.00 0.00 0.00 85 1015.3
20260903083512 76 188 1.0 4.0 0.00 0.00 0.00 85 1015.3
20260903083056 76 110 0.0 1.0 0.00 0.00 0.00 63 1012.0
20260903083004 76 202 1.0 6.0 0.00 0.00 0.00 85 1015.3
20260903082503 76 210 2.0 6.0 0.00 0.00 0.00 85 1015.2
20260903082003 76 194 1.0 6.0 0.00 0.00 0.00 85 1015.2
20260903081555 76 110 0.0 2.0 0.00 0.00 0.00 62 1012.1
20260903081503 76 193 0.0 3.0 0.00 0.00 0.00 85 1015.2
20260903081003 76 199 1.0 4.0 0.00 0.00 0.00 85 1015.2
20260903080504 76 224 2.0 4.0 0.00 0.00 0.00 85 1015.2
20260903080050 76 110 0.0 2.0 0.00 0.00 0.00 64 1012.3
20260903080011 76 215 1.0 4.0 0.00 0.00 0.00 85 1015.2
20260903075506 76 215 1.0 4.0 0.00 0.00 0.00 85 1015.2
20260903075007 76 206 1.0 4.0 0.00 0.00 0.00 86 1015.2
20260903074548 75 110 0.0 0.0 0.00 0.00 0.00 62 1012.2
20260903074517 77 196 1.0 5.0 0.00 0.00 0.00 86 1015.2
20260903074011 77 163 2.0 5.0 0.00 0.00 0.00 86 1015.1
20260903073512 77 189 2.0 5.0 0.00 0.00 0.00 86 1015.1
20260903073056 76 110 0.0 0.0 0.00 0.00 0.00 61 1012.2
20260903073023 77 180 0.0 4.0 0.00 0.00 0.00 86 1015.1
20260903072511 77 209 1.0 4.0 0.00 0.00 0.00 86 1015.1
20260903072003 77 188 0.0 4.0 0.00 0.00 0.00 86 1015.1
20260903071539 76 110 0.0 0.0 0.00 0.00 0.00 61 1012.2
20260903071506 77 176 2.0 4.0 0.00 0.00 0.00 86 1015.1
20260903071002 77 191 1.0 3.0 0.00 0.00 0.00 86 1015.1
20260903070504 77 174 0.0 3.0 0.00 0.00 0.00 86 1015.2
20260903070038 76 110 0.0 0.0 0.00 0.00 0.00 61 1012.5
20260903070009 77 197 0.0 3.0 0.00 0.00 0.00 86 1015.1
20260903065504 77 197 0.0 3.0 0.00 0.00 0.00 86 1015.1
20260903065006 77 225 0.0 4.0 0.00 0.00 0.00 86 1015.1
20260903064533 77 110 0.0 0.0 0.00 0.00 0.00 58 1012.7
20260903064515 78 203 1.0 5.0 0.00 0.00 0.00 86 1015.1
20260903064008 78 208 2.0 5.0 0.00 0.00 0.00 86 1015.0
20260903063508 78 192 1.0 4.0 0.00 0.00 0.00 86 1015.1
20260903063028 78 110 0.0 0.0 0.00 0.00 0.00 57 1012.6
20260903063017 78 187 1.0 4.0 0.00 0.00 0.00 87 1015.0
20260903062512 78 213 1.0 3.0 0.00 0.00 0.00 87 1015.1
20260903062013 78 217 1.0 3.0 0.00 0.00 0.00 87 1015.2
20260903061525 78 206 1.0 5.0 0.00 0.00 0.00 87 1015.3
20260903061005 78 201 1.0 5.0 0.00 0.00 0.00 87 1015.3
20260903060500 78 199 0.0 4.0 0.00 0.00 0.00 87 1015.3
20260903060019 80 107 0.0 5.0 0.00 0.00 0.00 55 1012.5
20260903060012 78 171 0.0 4.0 0.00 0.00 0.00 87 1015.2
20260903055503 78 186 2.0 4.0 0.00 0.00 0.00 87 1015.2
20260903055006 78 196 2.0 4.0 0.00 0.00 0.00 87 1015.2
20260903054521 79 187 1.0 4.0 0.00 0.00 0.00 87 1015.2
20260903054515 81 117 4.0 9.0 0.00 0.00 0.00 54 1012.7
20260903054006 79 196 1.0 4.0 0.00 0.00 0.00 87 1015.1
20260903053507 79 188 1.0 4.0 0.00 0.00 0.00 87 1015.1
20260903053018 79 175 2.0 5.0 0.00 0.00 0.00 86 1015.1
20260903053012 81 113 6.0 9.0 0.00 0.00 0.00 53 1012.6
20260903052511 79 187 1.0 5.0 0.00 0.00 0.00 86 1015.1
20260903052015 79 196 1.0 5.0 0.00 0.00 0.00 86 1015.0
20260903051524 79 204 1.0 6.0 0.00 0.00 0.00 86 1015.0
20260903051507 82 116 5.0 9.0 0.00 0.00 0.00 52 1012.8
20260903051016 79 200 2.0 6.0 0.00 0.00 0.00 86 1015.0
20260903050516 80 211 1.0 4.0 0.00 0.00 0.00 85 1015.0
20260903050033 80 203 1.0 6.0 0.00 0.00 0.00 85 1015.0
20260903050003 82 122 5.0 8.0 0.00 0.00 0.00 51 1012.8
20260903045504 80 190 2.0 6.0 0.00 0.00 0.00 85 1015.0
20260903045003 80 217 1.0 5.0 0.00 0.00 0.00 84 1015.0
20260903044600 83 119 7.0 11.0 0.00 0.00 0.00 51 1012.7
20260903044509 80 219 1.0 5.0 0.00 0.00 0.00 84 1015.1
20260903044004 81 178 1.0 4.0 0.00 0.00 0.00 84 1015.0
20260903043507 81 215 2.0 6.0 0.00 0.00 0.00 83 1015.0
20260903043100 83 109 7.0 11.0 0.00 0.00 0.00 50 1012.8
20260903043017 81 189 2.0 6.0 0.00 0.00 0.00 83 1015.0
20260903042508 81 209 2.0 6.0 0.00 0.00 0.00 83 1015.0
20260903042008 81 194 2.0 5.0 0.00 0.00 0.00 82 1015.0
20260903041556 84 110 8.0 13.0 0.00 0.00 0.00 50 1012.8
20260903041519 82 220 2.0 5.0 0.00 0.00 0.00 82 1015.0
20260903041013 82 193 1.0 4.0 0.00 0.00 0.00 81 1015.0
20260903040511 82 271 0.0 7.0 0.00 0.00 0.00 81 1015.0
20260903040058 84 116 9.0 14.0 0.00 0.00 0.00 49 1012.8
20260903040025 82 217 2.0 8.0 0.00 0.00 0.00 81 1014.9
20260903035513 82 182 1.0 8.0 0.00 0.00 0.00 81 1014.9
20260903035014 82 207 3.0 9.0 0.00 0.00 0.00 81 1014.9
20260903034552 85 101 6.0 9.0 0.00 0.00 0.00 48 1012.7
20260903034505 82 211 2.0 9.0 0.00 0.00 0.00 81 1014.9
20260903034003 82 183 2.0 9.0 0.00 0.00 0.00 81 1014.8
20260903033504 82 172 2.0 9.0 0.00 0.00 0.00 81 1014.9
20260903033049 85 120 8.0 12.0 0.00 0.00 0.00 47 1012.7
20260903033021 82 195 1.0 7.0 0.00 0.00 0.00 81 1014.9
20260903032506 82 260 3.0 7.0 0.00 0.00 0.00 81 1014.7
20260903032008 82 169 2.0 5.0 0.00 0.00 0.00 80 1014.9
20260903031551 86 89 5.0 7.0 0.00 0.00 0.00 46 1012.6
20260903031519 82 154 2.0 5.0 0.00 0.00 0.00 80 1014.8
20260903031010 82 190 2.0 7.0 0.00 0.00 0.00 80 1014.7
20260903030513 82 193 2.0 7.0 0.00 0.00 0.00 80 1014.7
20260903030045 87 124 5.0 8.0 0.00 0.00 0.00 45 1012.5
20260903030028 82 218 2.0 7.0 0.00 0.00 0.00 80 1014.7
20260903025513 82 209 1.0 7.0 0.00 0.00 0.00 80 1014.7
20260903025012 83 187 2.0 7.0 0.00 0.00 0.00 80 1014.7
20260903024548 87 120 7.0 9.0 0.00 0.00 0.00 44 1012.3
20260903024528 83 234 1.0 4.0 0.00 0.00 0.00 80 1014.7
20260903024014 83 220 1.0 5.0 0.00 0.00 0.00 80 1014.8
20260903023514 83 184 2.0 9.0 0.00 0.00 0.00 80 1014.7
20260903023057 88 115 5.0 8.0 0.00 0.00 0.00 44 1012.1
20260903023008 83 257 1.0 9.0 0.00 0.00 0.00 80 1014.7
20260903022504 83 232 2.0 7.0 0.00 0.00 0.00 80 1014.7
20260903022006 83 205 2.0 6.0 0.00 0.00 0.00 79 1014.7
20260903021544 87 105 4.0 8.0 0.00 0.00 0.00 44 1011.9
20260903021521 83 187 2.0 10.0 0.00 0.00 0.00 79 1014.8
20260903021009 83 184 2.0 11.0 0.00 0.00 0.00 78 1014.8
20260903020510 83 161 4.0 11.0 0.00 0.00 0.00 78 1014.7
20260903020039 88 86 4.0 9.0 0.00 0.00 0.00 44 1011.5
20260903020023 83 198 1.0 5.0 0.00 0.00 0.00 78 1014.6
20260903015511 83 176 1.0 5.0 0.00 0.00 0.00 77 1014.6
20260903015011 84 232 1.0 4.0 0.00 0.00 0.00 77 1014.5
20260903014535 89 63 4.0 11.0 0.00 0.00 0.00 43 1011.5
20260903014525 84 194 0.0 5.0 0.00 0.00 0.00 77 1014.6
20260903014013 84 190 1.0 5.0 0.00 0.00 0.00 77 1014.6
20260903013513 84 219 1.0 4.0 0.00 0.00 0.00 78 1014.5
20260903013032 89 109 7.0 13.0 0.00 0.00 0.00 42 1011.4
20260903013029 84 171 1.0 5.0 0.00 0.00 0.00 78 1014.5
20260903012516 84 207 2.0 5.0 0.00 0.00 0.00 77 1014.5
20260903012006 84 196 1.0 5.0 0.00 0.00 0.00 77 1014.5
20260903011528 90 82 5.0 17.0 0.00 0.00 0.00 39 1011.3
20260903011512 84 191 2.0 6.0 0.00 0.00 0.00 77 1014.5
20260903011007 85 209 2.0 6.0 0.00 0.00 0.00 77 1014.5
20260903010507 85 203 2.0 5.0 0.00 0.00 0.00 76 1014.5
20260903010026 91 69 10.0 19.0 0.00 0.00 0.00 37 1011.1
20260903010018 85 186 3.0 5.0 0.00 0.00 0.00 76 1014.5
20260903005512 85 191 2.0 6.0 0.00 0.00 0.00 75 1014.4